Location: Vanderbilt Beach
(26.2700°N, 81.7900°W)
Time: 09:17:14
(UTC-04:00)

N. Korean satellite - Pass Details

Date: 25 June 2021
Orbit: 451 x 497 km, 97.2° (Epoch: 26 July)

Event Time Altitude Azimuth Distance (km) Brightness Sun altitude
Rises 06:06:23 0° 25° (NNE) 2,571 11.3 -6.8°
Reaches altitude 10° 06:08:39 10° 37° (NE) 1,691 10.6 -6.3°
Maximum altitude 06:11:51 29° 98° (E) 941 8.7 -5.7°
Drops below altitude 10° 06:15:03 10° 159° (SSE) 1,691 9.2 -5.1°
Sets 06:17:19 0° 171° (S) 2,571 10.0 -4.6°
